Weather History for Opelousas St Landry Parish Ai, LA

Change the Weather History Date:

Saturday, May 24, 2014

  Actual Average (KLFT) Record (KLFT)
Temperature  
Mean Temperature 74 °F 78 °F  
Max Temperature 85 °F 88 °F 97 °F (1896)
Min Temperature 63 °F 69 °F 53 °F (1931)
Cooling Degree Days 9 13  
Month to date cooling degree days 261  
Year to date cooling degree days 515  
Growing Degree Days 24 (Base 50)    
Moisture  
Dew Point 65 °F    
Average Humidity 76    
Maximum Humidity 98    
Minimum Humidity 42    
Precipitation  
Precipitation 0.00 in 0.18 in 3.32 in (1968)
Month to date precipitation 3.57  
Year to date precipitation 21.41  
Sea Level Pressure  
Sea Level Pressure 30.07 in    
Wind  
Wind Speed 2 mph (South)    
Max Wind Speed 7 mph    
Max Gust Speed -    
Visibility 10 miles    
Events      
T = Trace of Precipitation, MM = Missing Value Source: NWS Daily Summary

Daily Weather History Graph

Daily Weather History Graph

Search for Another Location

Airport:

Trip Planner

Search our weather history database for the weather conditions in past years. The results will help you decide how hot, cold, wet, or windy it might be!

Date:

Astronomy

May. 24, 2014 Rise Set
Actual Time 6:09 AM CDT 8:01 PM CDT
Civil Twilight 5:42 AM CDT 8:28 PM CDT
Nautical Twilight 5:09 AM CDT 9:01 PM CDT
Astronomical Twilight 4:35 AM CDT 9:35 PM CDT
Moon 3:20 AM CDT (5/24) 4:14 PM CDT (5/24)
Length of Visible Light 14h 46m
Length of Day
13h 52m
Waning Crescent, 18% of the Moon is Illuminated
May 24
Waning Crescent
May 28
New
Jun 5
First Quarter
Jun 12
Full
Jun 19
Last Quarter

Hourly Weather History & Observations

Time (CDT) Temp. Heat Index Dew Point Humidity Pressure Visibility Wind Dir Wind Speed Gust Speed Precip Events Conditions
12:15 AM 69.8 °F - 63.0 °F 79% 30.09 in 10.0 mi South 3.5 mph - N/A   Clear
12:35 AM 68.9 °F - 63.0 °F 81% 30.09 in 10.0 mi South 3.5 mph - N/A   Clear
12:55 AM 68.9 °F - 62.8 °F 81% 30.09 in 10.0 mi Calm Calm - N/A   Clear
1:15 AM 68.7 °F - 62.8 °F 81% 30.08 in 10.0 mi Calm Calm - N/A   Clear
1:35 AM 66.4 °F - 62.6 °F 88% 30.08 in 10.0 mi Calm Calm - N/A   Clear
1:55 AM 65.1 °F - 62.6 °F 92% 30.07 in 10.0 mi Calm Calm - N/A   Clear
2:15 AM 63.9 °F - 62.2 °F 94% 30.07 in 10.0 mi Calm Calm - N/A   Clear
2:35 AM 63.9 °F - 62.6 °F 96% 30.07 in 10.0 mi Calm Calm - N/A   Clear
2:55 AM 64.0 °F - 62.8 °F 96% 30.06 in 10.0 mi Calm Calm - N/A   Clear
3:15 AM 63.5 °F - 62.4 °F 96% 30.07 in 10.0 mi Calm Calm - N/A   Clear
3:35 AM 64.4 °F - 63.0 °F 95% 30.07 in 10.0 mi Calm Calm - N/A   Clear
3:55 AM 63.7 °F - 62.2 °F 95% 30.07 in 10.0 mi Calm Calm - N/A   Clear
4:15 AM 63.5 °F - 62.8 °F 97% 30.07 in 10.0 mi Calm Calm - N/A   Scattered Clouds
4:35 AM 64.0 °F - 63.3 °F 97% 30.07 in 10.0 mi Calm Calm - N/A   Scattered Clouds
4:55 AM 63.7 °F - 63.1 °F 98% 30.07 in 10.0 mi Calm Calm - N/A   Scattered Clouds
5:15 AM 63.9 °F - 63.3 °F 98% 30.07 in 10.0 mi Calm Calm - N/A   Clear
5:35 AM 63.9 °F - 63.1 °F 97% 30.07 in 10.0 mi Calm Calm - N/A   Scattered Clouds
5:55 AM 63.9 °F - 63.1 °F 97% 30.08 in 10.0 mi Calm Calm - N/A   Mostly Cloudy
6:15 AM 65.1 °F - 63.9 °F 96% 30.08 in 10.0 mi Calm Calm - N/A   Mostly Cloudy
6:35 AM 64.9 °F - 63.9 °F 96% 30.09 in 10.0 mi Calm Calm - N/A   Scattered Clouds
7:15 AM 66.4 °F - 65.3 °F 96% 30.09 in 10.0 mi Calm Calm - N/A   Scattered Clouds
7:35 AM 67.1 °F - 65.3 °F 94% 30.10 in 7.0 mi Calm Calm - N/A   Clear
7:55 AM 68.0 °F - 65.3 °F 91% 30.10 in 10.0 mi Calm Calm - N/A   Clear
8:15 AM 68.9 °F - 65.8 °F 90% 30.10 in 10.0 mi Calm Calm - N/A   Clear
8:35 AM 69.8 °F - 66.2 °F 88% 30.10 in 10.0 mi Calm Calm - N/A   Clear
8:55 AM 70.7 °F - 66.6 °F 87% 30.10 in 10.0 mi ESE 3.5 mph - N/A   Clear
9:15 AM 71.6 °F - 67.1 °F 86% 30.10 in 10.0 mi ESE 3.5 mph - N/A   Clear
9:35 AM 72.5 °F - 67.6 °F 85% 30.11 in 10.0 mi ESE 3.5 mph - N/A   Clear
9:55 AM 73.0 °F - 67.8 °F 84% 30.11 in 10.0 mi Calm Calm - N/A   Clear
10:15 AM 73.8 °F - 67.8 °F 82% 30.11 in 10.0 mi Calm Calm - N/A   Mostly Cloudy
10:35 AM 74.8 °F - 68.2 °F 80% 30.11 in 10.0 mi East 3.5 mph - N/A   Scattered Clouds
10:55 AM 75.6 °F - 68.5 °F 79% 30.11 in 10.0 mi East 3.5 mph - N/A   Clear
11:15 AM 76.1 °F - 68.7 °F 78% 30.11 in 10.0 mi Calm Calm - N/A   Scattered Clouds
11:35 AM 75.9 °F - 68.2 °F 77% 30.12 in 10.0 mi Calm Calm - N/A   Mostly Cloudy
11:55 AM 77.0 °F - 68.7 °F 75% 30.11 in 10.0 mi Calm Calm - N/A   Overcast
12:15 PM 79.2 °F - 69.1 °F 71% 30.11 in 10.0 mi SE 4.6 mph - N/A   Mostly Cloudy
12:35 PM 78.4 °F - 67.6 °F 69% 30.10 in 10.0 mi South 3.5 mph - N/A   Mostly Cloudy
12:55 PM 79.2 °F - 68.4 °F 69% 30.10 in 10.0 mi SW 4.6 mph - N/A   Mostly Cloudy
1:15 PM 81.0 °F 83.6 °F 67.8 °F 64% 30.09 in 10.0 mi SSW 3.5 mph - N/A   Mostly Cloudy
1:35 PM 82.2 °F 85.3 °F 68.4 °F 63% 30.08 in 10.0 mi SW 3.5 mph - N/A   Scattered Clouds
1:55 PM 82.4 °F 85.0 °F 67.5 °F 60% 30.08 in 10.0 mi Calm Calm - N/A   Scattered Clouds
2:15 PM 82.6 °F 84.5 °F 65.5 °F 56% 30.07 in 10.0 mi WSW 4.6 mph - N/A   Scattered Clouds
2:35 PM 83.3 °F 85.3 °F 65.5 °F 55% 30.06 in 10.0 mi SW 6.9 mph - N/A   Mostly Cloudy
2:55 PM 84.2 °F 86.3 °F 66.0 °F 54% 30.06 in 10.0 mi SW 4.6 mph - N/A   Scattered Clouds
3:15 PM 84.0 °F 85.6 °F 64.8 °F 52% 30.06 in 10.0 mi Calm Calm - N/A   Scattered Clouds
3:35 PM 84.6 °F 86.1 °F 64.4 °F 51% 30.05 in 10.0 mi SW 6.9 mph - N/A   Scattered Clouds
3:55 PM 84.2 °F 85.6 °F 64.0 °F 51% 30.05 in 10.0 mi South 5.8 mph - N/A   Mostly Cloudy
4:15 PM 83.7 °F 85.1 °F 64.2 °F 52% 30.04 in 10.0 mi South 3.5 mph - N/A   Scattered Clouds
4:35 PM 84.2 °F 85.2 °F 63.1 °F 49% 30.04 in 10.0 mi West 4.6 mph - N/A   Scattered Clouds
4:55 PM 85.8 °F 87.1 °F 64.0 °F 48% 30.03 in 10.0 mi Calm Calm - N/A   Clear
5:15 PM 85.3 °F 85.9 °F 62.2 °F 46% 30.02 in 10.0 mi South 5.8 mph - N/A   Scattered Clouds
5:35 PM 85.1 °F 84.8 °F 59.9 °F 42% 30.01 in 10.0 mi Calm Calm - N/A   Scattered Clouds
5:55 PM 85.1 °F 85.0 °F 60.1 °F 43% 30.01 in 10.0 mi SW 5.8 mph - N/A   Clear
6:15 PM 85.1 °F 85.2 °F 60.8 °F 44% 30.00 in 10.0 mi South 6.9 mph - N/A   Clear
6:35 PM 82.6 °F 83.2 °F 61.9 °F 49% 30.01 in 10.0 mi South 5.8 mph - N/A   Clear
6:55 PM 80.8 °F 82.0 °F 62.6 °F 54% 30.01 in 10.0 mi South 4.6 mph - N/A   Clear
7:15 PM 81.1 °F 82.5 °F 63.3 °F 55% 30.01 in 10.0 mi South 4.6 mph - N/A   Scattered Clouds
7:35 PM 80.8 °F 82.4 °F 64.0 °F 57% 30.01 in 10.0 mi South 4.6 mph - N/A   Mostly Cloudy
7:55 PM 78.8 °F - 65.5 °F 64% 30.02 in 10.0 mi South 4.6 mph - N/A   Scattered Clouds
8:15 PM 77.4 °F - 66.2 °F 68% 30.03 in 10.0 mi South 5.8 mph - N/A   Mostly Cloudy
8:35 PM 76.8 °F - 66.9 °F 71% 30.03 in 10.0 mi South 6.9 mph - N/A   Scattered Clouds
8:55 PM 76.1 °F - 67.1 °F 74% 30.03 in 10.0 mi SSW 5.8 mph - N/A   Clear
9:15 PM 75.6 °F - 67.1 °F 75% 30.04 in 10.0 mi SSE 5.8 mph - N/A   Scattered Clouds
9:35 PM 75.6 °F - 66.9 °F 74% 30.05 in 10.0 mi South 4.6 mph - N/A   Overcast
9:55 PM 74.8 °F - 66.6 °F 75% 30.05 in 10.0 mi South 6.9 mph - N/A   Mostly Cloudy
10:15 PM 74.3 °F - 66.4 °F 76% 30.06 in 10.0 mi South 4.6 mph - N/A   Scattered Clouds
10:35 PM 73.4 °F - 66.4 °F 79% 30.07 in 10.0 mi SSW 4.6 mph - N/A   Clear
10:55 PM 72.9 °F - 66.7 °F 81% 30.07 in 10.0 mi South 5.8 mph - N/A   Clear
11:15 PM 72.0 °F - 66.9 °F 84% 30.07 in 10.0 mi South 4.6 mph - N/A   Clear
11:35 PM 71.1 °F - 66.7 °F 86% 30.07 in 10.0 mi SSW 3.5 mph - N/A   Clear
11:55 PM 70.7 °F - 66.7 °F 87% 30.07 in 10.0 mi Calm Calm - N/A   Clear